Regional Weather Roundup
Issued by NWS

Home | Current Version | Previous Version | Graphics & Text | Print | Product List | Glossary On
Versions: 1 2 3 4 5 6 7 8 9 10 11 12 13 14 15 16 17 18 19 20 21 22 23 24 25 26 27 28 29 30 31 32 33 34 35 36 37 38 39 40 41 42 43 44 45 46 47 48 49 50
408
ASUS44 KJAN 191310
RWRMS

MISSISSIPPI HOURLY WEATHER ROUNDUP
NATIONAL WEATHER SERVICE JACKSON MS
700 AM CST FRI DEC 19 2014

NOTE: "FAIR: INDICATES FEW OR NO CLOUDS BELOW 12,000 FEET WITH NO
SIGNIFICANT WEATHER AND/OR OBSTRUCTIONS TO VISIBILITY.

MSZ001>002-007>008-010>013-018>021-025>028-034>036-191400-
NORTHWEST MISSISSIPPI

CITY           SKY/WX    TMP DP  RH WIND       PRES   REMARKS
CLARKSDALE     CLOUDY    43  41  93 N9        30.24R
CLEVELAND      FAIR      43  41  94 N10       30.20F
GREENWOOD      CLOUDY    46  39  76 NE7       30.19R
GREENVILLE     CLOUDY    45  40  82 NE10      30.20R
GRENADA        CLOUDY    43  37  81 CALM      30.22S
OLIVE BRANCH   CLOUDY    37  37 100 NE7       30.24R WCI  32
OXFORD         CLOUDY    41  37  87 NE5       30.25R
TUNICA         CLOUDY    41  37  87 NE8       30.25R
$$

MSZ003>006-009-014>017-022>024-029>033-037>039-191400-
NORTHEAST MISSISSIPPI

CITY           SKY/WX    TMP DP  RH WIND       PRES   REMARKS
COLUMBUS AFB   CLOUDY    42  40  93 CALM      30.22R
CORINTH        CLOUDY    41  36  81 N6        30.23R
GOLDN TRIANGLE CLOUDY    43  37  81 CALM      30.20R
STARKVILLE     CLOUDY    43  37  81 CALM      30.21R
TUPELO         CLOUDY    44  38  79 NE9       30.22R
$$

MSZ040-058-191400-
CENTRAL MISSISSIPPI

CITY           SKY/WX    TMP DP  RH WIND       PRES   REMARKS
JACKSON INTL   CLOUDY    48  37  65 E8        30.16S
JACKSON HAWKNS CLOUDY    48  36  63 E8        30.16S
MERIDIAN KEY   CLOUDY    45  34  65 E5        30.22R
MERIDIAN NAS   CLOUDY    44  36  73 NE5       30.20R
RAYMOND        CLOUDY    48  45  87 CALM      30.17R
VICKSBURG      CLOUDY    50  42  74 NE5       30.17R
$$

MSZ059>079-191400-
SOUTH MISSISSIPPI

CITY           SKY/WX    TMP DP  RH WIND       PRES   REMARKS
HATTIESBURG    CLOUDY    50  43  77 NE6       30.18R
MCCOMB         RAIN      49  46  90 NE7       30.15R FOG
NATCHEZ        CLOUDY    50  46  87 CALM      30.16R
PINE BELT      CLOUDY    46  39  76 NE6       30.18R
$$

MSZ080>082-191400-
COASTAL MISSISSIPPI

CITY           SKY/WX    TMP DP  RH WIND       PRES   REMARKS
BAY ST LOUIS   TSTM      52  48  87 N12G17    30.14
BILOXI         LGT RAIN  51  51 100 NE10      30.11R
PASCAGOULA     RAIN      50  47  89 E5        30.13R
GULFPORT       LGT RAIN  51  48  89 NE9       30.12R
$$



USA.gov is the U.S. government's official web portal to all federal, state and local government web resources and services.